TimeMST,TemperatureF,Dew PointF,Humidity,Sea Level PressureIn,VisibilityMPH,Wind Direction,Wind SpeedMPH,Gust SpeedMPH,PrecipitationIn,Events,Conditions,WindDirDegrees,DateUTC
12:53 AM,34.0,27.0,75,30.28,10.0,WSW,10.4,-,N/A,,Overcast,250,2013-03-02 07:53:00
2:53 AM,32.0,26.1,79,30.28,10.0,West,12.7,-,N/A,,Clear,260,2013-03-02 09:53:00
3:53 AM,30.0,25.0,82,30.29,10.0,West,11.5,-,N/A,,Partly Cloudy,260,2013-03-02 10:53:00
5:53 AM,30.9,24.1,76,30.31,10.0,WNW,8.1,-,N/A,,Clear,290,2013-03-02 12:53:00
6:53 AM,32.0,24.1,73,30.32,10.0,West,10.4,-,N/A,,Clear,270,2013-03-02 13:53:00
7:53 AM,39.0,26.1,60,30.30,10.0,WNW,15.0,-,N/A,,Clear,300,2013-03-02 14:53:00
8:53 AM,41.0,28.0,60,30.29,10.0,WNW,10.4,-,N/A,,Clear,290,2013-03-02 15:53:00
9:53 AM,46.9,28.9,50,30.26,10.0,WNW,13.8,-,N/A,,Clear,290,2013-03-02 16:53:00
10:53 AM,52.0,28.9,41,30.23,10.0,WNW,16.1,-,N/A,,Clear,290,2013-03-02 17:53:00
11:53 AM,51.1,30.0,44,30.23,10.0,West,15.0,-,N/A,,Clear,280,2013-03-02 18:53:00
12:53 PM,53.1,32.0,45,30.19,10.0,WSW,12.7,-,N/A,,Clear,240,2013-03-02 19:53:00
1:53 PM,54.0,30.0,40,30.16,10.0,West,13.8,-,N/A,,Clear,260,2013-03-02 20:53:00
2:53 PM,54.0,28.0,37,30.15,10.0,WSW,13.8,18.4,N/A,,Clear,240,2013-03-02 21:53:00
3:53 PM,53.1,28.0,38,30.15,10.0,West,12.7,-,N/A,,Clear,260,2013-03-02 22:53:00
4:53 PM,51.1,28.9,43,30.14,10.0,WSW,11.5,-,N/A,,Clear,250,2013-03-02 23:53:00
6:53 PM,41.0,28.9,62,30.17,10.0,WSW,10.4,-,N/A,,Clear,240,2013-03-03 01:53:00
7:53 PM,39.0,27.0,62,30.14,10.0,WSW,8.1,-,N/A,,Clear,250,2013-03-03 02:53:00
8:53 PM,42.1,25.0,51,30.12,10.0,SW,12.7,-,N/A,,Clear,230,2013-03-03 03:53:00
9:53 PM,37.0,25.0,62,30.10,10.0,WSW,9.2,-,N/A,,Clear,240,2013-03-03 04:53:00
10:53 PM,39.9,24.1,53,30.05,10.0,SW,9.2,-,N/A,,Clear,220,2013-03-03 05:53:00
11:53 PM,41.0,25.0,53,30.01,10.0,SSW,9.2,-,N/A,,Clear,210,2013-03-03 06:53:00